This demonstration page uses our WeatherBlox Daily Observations layout. Learn more.

Left ArrowRight Arrow

Hourly Observations for March 26, 2018

Temp ( °F °C ) Dew Point ( °F °C ) Humidity (%) Winds ( mph kmh ) Pressure ( in mb ) Visibility ( mi km ) Precip ( " mm )
12:37 am 00:37 Mostly Cloudy 41 5 28 -2.2 60 60 ENE 20 31 30.50 1033 10 16 0.00 0.00
12:59 am 00:59 Partly Cloudy 40 4.4 29 -1.7 65 65 NE 18 30 30.51 1033 10 16 0.00 0.00
1:59 am 01:59 Clear 40 4.4 29 -1.7 65 65 NE 17 28 30.52 1034 10 16 0.00 0.00
2:59 am 02:59 Mostly Clear 40 4.4 28 -2.2 63 63 ENE 23 37 30.52 1033 10 16 0.00 0.00
3:59 am 03:59 Mostly Clear 40 4.4 28 -2.2 63 63 NE 21 33 30.51 1033 10 16 0.00 0.00
4:59 am 04:59 Mostly Clear 40 4.4 28 -2.2 63 63 NE 17 28 30.51 1033 10 16 0.00 0.00
5:59 am 05:59 Mostly Clear 40 4.4 28 -2.2 63 63 NE 17 28 30.53 1034 10 16 0.00 0.00
6:59 am 06:59 Mostly Clear 40 4.4 27 -2.8 60 60 NE 20 31 30.55 1034 10 16 0.00 0.00
7:59 am 07:59 Partly Cloudy 41 5 27 -2.8 57 57 NE 16 26 30.58 1035 10 16 0.00 0.00
8:59 am 08:59 Partly Cloudy 42 5.6 28 -2.2 58 58 NE 18 30 30.60 1036 10 16 0.00 0.00
9:59 am 09:59 Partly Cloudy 45 7.2 29 -1.7 54 54 NE 15 24 30.61 1037 10 16 0.00 0.00
10:59 am 10:59 Mostly Cloudy 46 7.8 30 -1.1 54 54 NE 18 30 30.64 1038 10 16 0.00 0.00
11:59 am 11:59 Mostly Cloudy 46 7.8 30 -1.1 54 54 NE 18 30 30.64 1038 10 16 0.00 0.00
12:59 pm 12:59 Mostly Cloudy 48 8.9 31 -0.6 52 52 NE 17 28 30.64 1038 10 16 0.00 0.00
1:59 pm 13:59 Mostly Cloudy 47 8.3 31 -0.6 54 54 NE 18 30 30.63 1037 10 16 0.00 0.00
2:59 pm 14:59 Mostly Cloudy 47 8.3 31 -0.6 54 54 ENE 20 31 30.62 1037 10 16 0.00 0.00
3:59 pm 15:59 Cloudy 46 7.8 31 -0.6 56 56 ENE 16 26 30.62 1037 10 16 0.00 0.00
4:59 pm 16:59 Mostly Cloudy 46 7.8 32 0 58 58 NE 18 30 30.62 1037 10 16 0.00 0.00
5:59 pm 17:59 Partly Cloudy 44 6.7 31 -0.6 60 60 ENE 15 24 30.62 1037 10 16 0.00 0.00
6:59 pm 18:59 Partly Cloudy 42 5.6 31 -0.6 65 65 ENE 15 24 30.63 1037 9 14 0.00 0.00
7:59 pm 19:59 Partly Cloudy 41 5 31 -0.6 67 67 NE 13 20 30.62 1037 10 16 0.00 0.00
8:59 pm 20:59 Partly Cloudy 41 5 31 -0.6 67 67 NE 15 24 30.65 1038 10 16 0.00 0.00
9:59 pm 21:59 Partly Cloudy 40 4.4 31 -0.6 70 70 NE 13 20 30.66 1038 10 16 0.00 0.00
10:59 pm 22:59 Partly Cloudy 40 4.4 31 -0.6 70 70 NE 10 17 30.65 1038 10 16 0.00 0.00
11:59 pm 23:59 Mostly Cloudy 40 4.4 32 0 73 73 ENE 9 15 30.63 1037 9 14 0.00 0.00

Powered by AerisWeather